Printer-friendly version

IAU Minor Planet Center

Minor Planet Center

MPEC 2006-U34 : 2005 RP43, 2005 RQ43, 2005 RS43, 2005 SC278, 2005 SD278, 2005 SE278, 2005 SF278

The following Minor Planet Electronic Circular may be linked-to from your own Web pages, but must not otherwise be redistributed electronically.


Read MPEC 2006-U33 Read MPEC 2006-U35


M.P.E.C. 2006-U34                                Issued 2006 Oct. 20, 23:16 UT

     The Minor Planet Electronic Circulars contain information on unusual
         minor planets and routine data on comets.  They are published
   on behalf of Commission 20 of the International Astronomical Union by the
          Minor Planet Center, Smithsonian Astrophysical Observatory,
                          Cambridge, MA 02138, U.S.A.

             Prepared using the Tamkin Foundation Computer Network

                              MPC@CFA.HARVARD.EDU
          URL http://cfa-www.harvard.edu/iau/mpc.html  ISSN 1523-6714

2005 RP43, 2005 RQ43, 2005 RS43, 2005 SC278, 2005 SD278, 2005 SE278, 2005 SF278

                      Revision to MPEC 2006-Q70, 2006-Q71

Additional Observations:
     K05R43P  C2006 08 28.27357 23 28 34.24 +00 30 21.9          22.0 V EU034705
     K05R43P  C2006 08 28.27689 23 28 34.24 +00 30 21.9          22.9   EU034705
     K05R43P  C2006 09 11.28361 23 27 28.68 +00 25 22.8          21.8 V EU034705
     K05R43P  C2006 09 11.28610 23 27 28.66 +00 25 22.7          22.6   EU034705
     K05R43P  C2006 09 19.37797 23 26 50.06 +00 22 15.8          22.0 V EU034705
     K05R43P  C2006 09 19.38129 23 26 50.04 +00 22 15.6          23.1   EU034705
     K05R43P  C2006 09 22.25759 23 26 36.43 +00 21 08.1          22.5 V EU034705
     K05R43P  C2006 09 22.25842 23 26 36.42 +00 21 08.0          23.9   EU034705
     K05R43P  C2006 10 01.23103 23 25 54.86 +00 17 37.6          22.3 V EU034705
     K05R43P  C2006 10 01.23435 23 25 54.84 +00 17 37.3          23.1   EU034705
     K05R43P  C2006 10 03.29541 23 25 45.60 +00 16 49.7          22.0 V EU034705
     K05R43P  C2006 10 03.29624 23 25 45.59 +00 16 49.7          22.7   EU034705
     K05R43Q  C2006 09 16.41366 02 17 42.12 +00 57 47.2          22.6 V EU034705
     K05R43Q  C2006 09 16.41699 02 17 42.12 +00 57 47.6          23.8   EU034705
     K05R43Q  C2006 09 18.39732 02 17 35.08 +00 56 54.1          22.4 V EU034705
     K05R43Q  C2006 09 18.40064 02 17 35.04 +00 56 54.1          23.5   EU034705
     K05R43Q  C2006 09 30.35631 02 16 47.35 +00 51 30.0          22.3 V EU034705
     K05R43Q  C2006 09 30.35963 02 16 47.34 +00 51 30.3          23.6   EU034705
     K05R43Q  C2006 10 02.35078 02 16 38.61 +00 50 36.1          22.7 V EU034705
     K05R43Q  C2006 10 02.35411 02 16 38.62 +00 50 35.8          24.1   EU034705
     K05R43Q  C2006 10 03.41368 02 16 33.88 +00 50 07.4          22.4 V EU034705
     K05R43Q  C2006 10 03.41700 02 16 33.85 +00 50 07.3          24.1   EU034705
     K05R43Q  C2006 10 11.40826 02 15 56.72 +00 46 36.0          22.7 V EU034705
     K05R43Q  C2006 10 11.40909 02 15 56.72 +00 46 36.0          24.1   EU034705
     K05R43S  C2006 09 12.34906 00 59 05.97 +00 10 15.5          21.7 V EU034705
     K05R43S  C2006 09 12.35238 00 59 05.95 +00 10 15.1          22.7   EU034705
     K05R43S  C2006 09 16.35905 00 58 49.66 +00 08 28.3          21.5 V EU034705
     K05R43S  C2006 09 16.36237 00 58 49.64 +00 08 28.2          22.3   EU034705
     K05R43S  C2006 09 18.34270 00 58 41.37 +00 07 34.9          21.5 V EU034705
     K05R43S  C2006 09 18.34602 00 58 41.34 +00 07 34.7          22.4   EU034705
     K05R43S  C2006 09 25.38426 00 58 10.95 +00 04 23.5          21.2 R EU034688
     K05R43S  C2006 09 25.46154 00 58 10.61 +00 04 21.2                 EU034688
     K05R43S  C2006 09 30.30163 00 57 49.04 +00 02 10.2          21.5 V EU034705
     K05R43S  C2006 09 30.30495 00 57 49.02 +00 02 10.0          22.4   EU034705
     K05R43S  C2006 10 02.29610 00 57 40.03 +00 01 16.6          21.5 V EU034705
     K05R43S  C2006 10 02.29942 00 57 40.02 +00 01 16.5          22.5   EU034705
     K05R43S  C2006 10 04.28884 00 57 31.00 +00 00 23.4          21.6 V EU034705
     K05R43S  C2006 10 04.29216 00 57 31.00 +00 00 23.3          22.7   EU034705
     K05SR8C  C2006 08 28.30341 00 11 40.43 +00 32 06.1          22.3 V EU034705
     K05SR8C  C2006 08 28.30673 00 11 40.46 +00 32 05.9          23.1   EU034705
     K05SR8C  C2006 10 01.26069 00 08 44.22 +00 13 09.9          22.5 V EU034705
     K05SR8C  C2006 10 01.26401 00 08 44.18 +00 13 10.1          23.5   EU034705
     K05SR8C  C2006 10 02.26216 00 08 38.82 +00 12 35.5          22.9 V EU034705
     K05SR8C  C2006 10 02.26299 00 08 38.82 +00 12 35.5          24.1   EU034705
     K05SR8C  C2006 10 04.25488 00 08 28.14 +00 11 27.5          22.2 V EU034705
     K05SR8C  C2006 10 04.25571 00 08 28.13 +00 11 27.5          22.6   EU034705
     K05SR8D  C2006 09 16.44787 03 07 06.63 -00 18 51.7          22.5 V EU034705
     K05SR8D  C2006 09 16.44870 03 07 06.62 -00 18 51.7          23.3   EU034705
     K05SR8D  C2006 09 24.39544 03 06 46.65 -00 23 07.3          21.5 R EU034688
     K05SR8D  C2006 09 24.47140 03 06 46.38 -00 23 08.0                 EU034688
     K05SR8D  C2006 10 01.38371 03 06 25.20 -00 26 49.8          22.6 V EU034705
     K05SR8D  C2006 10 01.38703 03 06 25.18 -00 26 50.1          23.5   EU034705
     K05SR8D  C2006 10 03.44812 03 06 18.25 -00 27 55.3          22.7 V EU034705
     K05SR8D  C2006 10 03.45144 03 06 18.22 -00 27 55.5          23.7   EU034705
     K05SR8D  C2006 10 11.44279 03 05 48.98 -00 32 04.0          22.7 V EU034705
     K05SR8D  C2006 10 11.44362 03 05 48.97 -00 32 04.1          23.9   EU034705
     K05SR8E  C2006 09 17.37108 01 13 54.02 +00 20 21.1          23.5 V EU034705
     K05SR8E  C2006 09 17.37191 01 13 54.00 +00 20 21.0          25.0   EU034705
     K05SR8E  C2006 10 01.30506 01 12 49.45 +00 13 03.5          23.1 V EU034705
     K05SR8E  C2006 10 01.30589 01 12 49.45 +00 13 03.6          24.4   EU034705
     K05SR8E  C2006 10 02.30654 01 12 44.61 +00 12 32.4          23.1 V EU034705
     K05SR8E  C2006 10 02.30737 01 12 44.62 +00 12 32.4          24.1   EU034705
     K05SR8E  C2006 10 04.29927 01 12 34.90 +00 11 30.6          21.5 V EU034705
     K05SR8E  C2006 10 04.30010 01 12 34.90 +00 11 30.7          21.4   EU034705
     K05SR8F  C2004 10 10.33779 02 07 40.55 -01 01 03.6          22.4 V EU034705
     K05SR8F  C2004 10 10.34111 02 07 40.53 -01 01 03.8          23.6   EU034705
     K05SR8F  C2006 08 28.39463 02 23 25.40 +00 50 20.9          23.0 V EU034705
     K05SR8F  C2006 08 28.39546 02 23 25.40 +00 50 20.7          24.5   EU034705
     K05SR8F  C2006 09 17.44271 02 22 31.76 +00 40 28.7          22.3 V EU034705
     K05SR8F  C2006 09 17.44603 02 22 31.75 +00 40 28.5          23.4   EU034705
     K05SR8F  C2006 09 22.37919 02 22 13.53 +00 37 53.2          22.7 V EU034705
     K05SR8F  C2006 09 22.38251 02 22 13.51 +00 37 53.1          23.7   EU034705
     K05SR8F  C2006 09 30.35969 02 21 40.50 +00 33 39.5          22.4 V EU034705
     K05SR8F  C2006 09 30.36301 02 21 40.47 +00 33 39.8          23.4   EU034705
     K05SR8F  C2006 10 02.35417 02 21 31.66 +00 32 37.0          22.9 V EU034705
     K05SR8F  C2006 10 02.35749 02 21 31.63 +00 32 37.1          24.0   EU034705

Observer details:
688 Lowell Observatory, Anderson Mesa Station.  Observer L. H. Wasserman.
    1.8-m Perkins telescope + CCD.
705 Apache Point.  Observer SDSS Collaboration.  Measurers A. C. Becker,
    A. W. Puckett, J. Kubica.  2.5-m f/5 Ritchey-Chretien + CCD.

Orbital elements:
2005 RP43
Epoch 2006 Sept. 22.0 TT = JDT 2454000.5                MPC
M   4.80741              (2000.0)            P               Q
n   0.00109234     Peri.  346.49297     +0.87731598     +0.46806562
a  93.3749366      Node   344.23289     -0.39607218     +0.58147432
e   0.5897457      Incl.   22.95535     -0.27100462     +0.66543384
P 902              H    6.2           G   0.15           U   5
Residuals in seconds of arc
K0593  705  0.0   0.0     K05AN  705  0.0   0.1-    K05C1  705  0.3-  0.1+
K0593  705  0.3-  0.3-    K05AN  705  0.2+  0.0     K05C1  705  0.4-  0.0
K059A  705  0.1+  0.2+    K05AQ  705  0.1-  0.1+    K068S  705  0.1-  0.0
K059A  705  0.2+  0.2-    K05AQ  705  0.0   0.1-    K068S  705  0.1+  0.1+
K059D  705  0.1-  0.2+    K05AS  705  0.0   0.0     K069B  705  0.1-  0.0
K059D  705  0.3+  0.2+    K05AS  705  0.1+  0.0     K069B  705  0.2-  0.0
K059F  705  0.1-  0.1+    K05AV  705  0.1-  0.1-    K069J  705  0.0   0.1+
K059F  705  0.0   0.2+    K05AV  705  0.2+  0.0     K069J  705  0.1-  0.0
K059M  705  0.3-  0.1+    K05B5  705  0.0   0.2+    K069M  705  0.1+  0.1+
K059M  705  0.0   0.2+    K05B5  705  0.1-  0.2-    K069M  705  0.0   0.0
K059O  705  0.2+  0.1-    K05B7  705  0.0   0.0     K06A1  705  0.0   0.1+
K059O  705  0.4+  0.0     K05B7  705  0.1+  0.1-    K06A1  705  0.0   0.1-
K059Q  705  0.2-  0.0     K05BD  705  0.1+  0.1-    K06A3  705  0.2+  0.1-
K059Q  705  0.1-  0.1+    K05BD  705  0.4+  0.0     K06A3  705  0.1+  0.0
K05A1  705  0.0   0.3-    K05BQ  705  0.0   0.1+
K05A1  705  0.4-  0.2-    K05BQ  705  0.1+  0.1+

